Date String (YYYY-MM-DD hh:mm:ss) UTC,Instrument flags,absolute air pressure of the measurement (hPa),sample flow rate (lpm),inlet stack bypass flow (lpm),air temperature of the measurement (°C),ambient temperature measured by the external sensor (°C),aerosol sample conditioner tube jacket temperature (°C),OPC LED temperature (°C),internal box temperature (°C),relative humidity of the measurement (%),span deviation,mass concentration of particles derived from Lorenz-Mie calculation of OPC scattering (μg/m³),mass concentration of particles derived from Lorenz-Mie calculation of OPC scattering (μg/m³),mass concentration of particles derived from Lorenz-Mie calculation of OPC scattering (μg/m³)
DateTimeUTC,F1_M11,P_M11,Q1_M11,Q2_M11,T1_M11,T2_M11,T3_M11,T4_M11,T5_M11,U1_M11,ZSPAN_M11,X0_M11,X2_M11,X1_M11
2024-01-28 08:00:00,SystemResetWarning,0835.8,5.00,000.00,021.7,020.6,000.0,030.0,023.0,09.6,0000.0,0006.03,0003.15,0002.83
2024-01-28 08:01:00,SystemResetWarning,0835.8,5.00,000.00,021.7,020.6,000.0,030.0,023.0,09.6,0000.0,0005.84,0003.11,0002.79
2024-01-28 08:02:00,SystemResetWarning,0835.8,5.00,000.00,021.7,020.6,000.0,030.0,023.0,09.6,0000.0,0005.84,0003.12,0002.77
2024-01-28 08:03:00,SystemResetWarning,0835.8,5.00,000.00,021.7,020.6,000.0,030.0,023.0,09.6,0000.0,0005.65,0003.12,0002.77
2024-01-28 08:04:00,SystemResetWarning,0835.8,5.00,000.00,021.7,020.6,000.0,030.0,023.0,09.5,0000.0,0005.78,0003.15,0002.79
2024-01-28 08:05:00,SystemResetWarning,0835.8,5.00,000.00,021.7,020.5,000.0,030.0,023.0,09.5,0000.0,0005.92,0003.17,0002.76
2024-01-28 08:06:00,SystemResetWarning,0835.8,5.00,000.00,021.6,020.5,000.0,030.0,023.0,09.5,0000.0,0005.91,0003.15,0002.71
2024-01-28 08:07:00,SystemResetWarning,0835.8,5.00,000.00,021.6,020.5,000.0,030.0,023.0,09.5,0000.0,0005.76,0003.11,0002.68
2024-01-28 08:08:00,SystemResetWarning,0835.8,5.01,000.00,021.6,020.6,000.0,030.0,023.0,09.5,0000.0,0005.60,0003.06,0002.64
2024-01-28 08:09:00,SystemResetWarning,0835.8,5.00,000.00,021.6,020.5,000.0,030.0,023.0,09.5,0000.0,0005.56,0003.03,0002.60
2024-01-28 08:10:00,SystemResetWarning,0835.9,5.00,000.00,021.6,020.5,000.0,030.0,023.0,09.5,0000.0,0004.95,0002.99,0002.57
2024-01-28 08:11:00,SystemResetWarning,0835.9,5.00,000.00,021.6,020.5,000.0,030.0,023.0,09.5,0000.0,0006.28,0002.98,0002.55
2024-01-28 08:12:00,SystemResetWarning,0835.9,5.00,000.00,021.6,020.5,000.0,030.0,023.0,09.5,0000.0,0006.89,0002.99,0002.53
2024-01-28 08:13:00,SystemResetWarning,0835.9,5.00,000.00,021.6,020.6,000.0,030.0,023.0,09.5,0000.0,0006.76,0002.91,0002.51
2024-01-28 08:14:00,SystemResetWarning,0835.9,4.99,000.00,021.6,020.6,000.0,030.0,023.0,09.5,0000.0,0006.64,0002.87,0002.49
2024-01-28 08:15:00,SystemResetWarning,0835.9,5.00,000.00,021.6,020.6,000.0,030.0,023.0,09.5,0000.0,0006.50,0002.85,0002.48
2024-01-28 08:16:00,SystemResetWarning,0836.0,5.01,000.00,021.6,020.6,000.0,029.9,022.9,09.6,0000.0,0006.42,0002.86,0002.50
2024-01-28 08:17:00,SystemResetWarning,0836.0,5.01,000.00,021.6,020.6,000.0,029.9,023.0,09.5,0000.0,0006.44,0002.88,0002.52
2024-01-28 08:18:00,SystemResetWarning,0836.1,5.01,000.00,021.6,020.6,000.0,029.9,023.0,09.5,0000.0,0006.52,0002.91,0002.52
2024-01-28 08:19:00,SystemResetWarning,0836.1,5.00,000.00,021.6,020.6,000.0,029.9,023.0,09.5,0000.0,0006.81,0002.94,0002.53
2024-01-28 08:20:00,SystemResetWarning,0836.1,5.00,000.00,021.6,020.6,000.0,029.9,023.0,09.6,0000.0,0007.58,0002.97,0002.55
2024-01-28 08:21:00,SystemResetWarning,0836.1,4.99,000.00,021.6,020.6,000.0,029.9,023.0,09.7,0000.0,0007.74,0003.01,0002.57
2024-01-28 08:22:00,SystemResetWarning,0836.1,5.00,000.00,021.6,020.6,000.0,029.9,023.0,09.7,0000.0,0006.58,0003.02,0002.57
2024-01-28 08:23:00,SystemResetWarning,0836.1,5.00,000.00,021.6,020.5,000.0,029.9,023.0,09.8,0000.0,0005.45,0003.00,0002.56
2024-01-28 08:24:00,SystemResetWarning,0836.1,5.00,000.00,021.6,020.5,000.0,029.9,023.0,09.8,0000.0,0005.40,0003.00,0002.55
2024-01-28 08:25:00,SystemResetWarning,0836.1,5.01,000.00,021.6,020.5,000.0,029.9,022.9,09.8,0000.0,0005.39,0002.99,0002.54
2024-01-28 08:26:00,SystemResetWarning,0836.1,5.00,000.00,021.6,020.5,000.0,029.9,022.9,09.8,0000.0,0005.28,0002.93,0002.52
2024-01-28 08:27:00,SystemResetWarning,0836.1,5.00,000.00,021.6,020.5,000.0,029.9,023.0,09.7,0000.0,0005.15,0002.85,0002.49
2024-01-28 08:28:00,SystemResetWarning,0836.1,4.99,000.00,021.6,020.6,000.0,029.9,023.0,09.7,0000.0,0005.13,0002.80,0002.47
2024-01-28 08:29:00,SystemResetWarning,0836.1,5.00,000.00,021.6,020.6,000.0,029.9,023.0,09.8,0000.0,0005.07,0002.74,0002.43
2024-01-28 08:30:00,SystemResetWarning,0836.1,5.00,000.00,021.6,020.6,000.0,029.9,022.9,09.8,0000.0,0005.02,0002.73,0002.40
2024-01-28 08:31:00,SystemResetWarning,0836.1,5.00,000.00,021.6,020.6,000.0,029.9,022.9,09.8,0000.0,0003.85,0002.67,0002.35
2024-01-28 08:32:00,SystemResetWarning,0836.1,5.01,000.00,021.6,020.5,000.0,029.9,022.9,09.8,0000.0,0003.62,0002.61,0002.34
2024-01-28 08:33:00,SystemResetWarning,0836.1,5.01,000.00,021.6,020.5,000.0,029.9,022.9,09.7,0000.0,0003.51,0002.58,0002.32
2024-01-28 08:34:00,SystemResetWarning,0836.1,5.00,000.00,021.6,020.5,000.0,029.9,022.9,09.7,0000.0,0003.83,0002.56,0002.31
2024-01-28 08:35:00,SystemResetWarning,0836.1,5.00,000.00,021.6,020.6,000.0,029.9,022.9,09.6,0000.0,0003.94,0002.55,0002.30
2024-01-28 08:36:00,SystemResetWarning,0836.1,5.00,000.00,021.6,020.6,000.0,029.9,022.9,09.6,0000.0,0003.90,0002.54,0002.28
2024-01-28 08:37:00,SystemResetWarning,0836.1,5.00,000.00,021.6,020.6,000.0,029.9,023.0,09.6,0000.0,0004.04,0002.59,0002.28
2024-01-28 08:38:00,SystemResetWarning,0836.1,4.99,000.00,021.5,020.6,000.0,029.9,022.9,09.6,0000.0,0004.11,0002.65,0002.31
2024-01-28 08:39:00,SystemResetWarning,0836.1,4.99,000.00,021.5,020.6,000.0,029.9,022.9,09.6,0000.0,0004.22,0002.71,0002.34
2024-01-28 08:40:00,SystemResetWarning,0836.1,5.00,000.00,021.5,020.6,000.0,029.9,022.9,09.6,0000.0,0004.57,0002.78,0002.39
2024-01-28 08:41:00,SystemResetWarning,0836.1,5.00,000.00,021.5,020.6,000.0,029.9,022.9,09.6,0000.0,0005.06,0002.83,0002.43
2024-01-28 08:42:00,SystemResetWarning,0836.1,5.00,000.00,021.5,020.6,000.0,029.9,022.9,09.6,0000.0,0005.09,0002.87,0002.47
2024-01-28 08:43:00,SystemResetWarning,0836.1,5.00,000.00,021.5,020.6,000.0,029.9,022.9,09.6,0000.0,0005.12,0002.91,0002.51
2024-01-28 08:44:00,SystemResetWarning,0836.1,5.00,000.00,021.5,020.6,000.0,029.9,022.9,09.5,0000.0,0006.06,0002.94,0002.53
2024-01-28 08:45:00,SystemResetWarning,0836.1,5.01,000.00,021.5,020.6,000.0,029.9,022.9,09.5,0000.0,0005.96,0002.95,0002.54
2024-01-28 08:46:00,SystemResetWarning,0836.1,5.00,000.00,021.5,020.6,000.0,029.9,022.9,09.5,0000.0,0006.44,0002.96,0002.55
2024-01-28 08:47:00,SystemResetWarning,0836.1,5.00,000.00,021.5,020.6,000.0,029.9,022.9,09.5,0000.0,0007.17,0002.97,0002.56
2024-01-28 08:48:00,SystemResetWarning,0836.1,5.00,000.00,021.5,020.6,000.0,029.8,022.9,09.5,0000.0,0007.49,0002.97,0002.53
2024-01-28 08:49:00,SystemResetWarning,0836.1,5.00,000.00,021.5,020.5,000.0,029.8,022.9,09.4,0000.0,0007.47,0002.89,0002.47
2024-01-28 08:50:00,SystemResetWarning,0836.1,5.00,000.00,021.5,020.5,000.0,029.8,022.9,09.4,0000.0,0007.53,0002.78,0002.39
2024-01-28 08:51:00,SystemResetWarning,0836.1,4.99,000.00,021.5,020.5,000.0,029.8,022.9,09.5,0000.0,0007.45,0002.68,0002.32
2024-01-28 08:52:00,SystemResetWarning,0836.1,4.99,000.00,021.5,020.5,000.0,029.8,022.9,09.5,0000.0,0006.85,0002.56,0002.24
2024-01-28 08:53:00,SystemResetWarning,0836.0,5.00,000.00,021.5,020.5,000.0,029.8,022.9,09.5,0000.0,0006.70,0002.49,0002.19
2024-01-28 08:54:00,SystemResetWarning,0836.0,5.00,000.00,021.5,020.5,000.0,029.8,022.9,09.4,0000.0,0006.73,0002.47,0002.14
2024-01-28 08:55:00,SystemResetWarning,0836.0,5.01,000.00,021.5,020.5,000.0,029.8,022.9,09.4,0000.0,0005.59,0002.39,0002.07
2024-01-28 08:56:00,SystemResetWarning,0836.0,5.01,000.00,021.5,020.5,000.0,029.8,022.9,09.4,0000.0,0005.32,0002.37,0002.04
2024-01-28 08:57:00,SystemResetWarning,0836.1,5.00,000.00,021.5,020.5,000.0,029.8,022.9,09.4,0000.0,0004.52,0002.34,0002.02
2024-01-28 08:58:00,SystemResetWarning,0836.0,4.98,000.00,021.5,020.5,000.0,029.8,022.8,09.4,0000.0,0003.73,0002.31,0002.01
2024-01-28 08:59:00,SystemResetWarning,0836.1,5.00,000.00,021.5,020.5,000.0,029.8,022.8,09.4,0000.0,0003.21,0002.26,0002.02
